[[{"header":{"parameterUnit":"m.s-1","parameterCategory":2,"la1":30.2991,"la2":30.254,"lo1":-89.0895,"lo2":-89.0444,"dy":0.0017,"dx":0.0017,"nx":28,"ny":28,"refTime":"2025-05-17T03:00:00:Z","depth":"0","parameterNumber":2,"parameterNumberName":"U-component_of_CURRENTS"},"data":[0,0,0,0,0,0,0,0,0,0,0,0,0,0,0,0,0,0,0,0,0,0,0,0,0,0,0,0,0,0,0,0,0,0,0,0,0,0,0,0,0,0,0,0,0,0,0,0,0,0,0,0,0,0,0,0,0,0,0.3534,0.3535,0,0.37,0.3702,0.3704,0.3738,0.3737,0.3736,0.3735,0.3811,0.3814,0.3818,0,0,0,0,0,0,0,0,0,0,0,0,0,0.3404,0.3406,0.3533,0.3535,0.3537,0.37,0.3702,0.3705,0.3739,0.3737,0.3735,0.3734,0.381,0.3814,0.3818,0,0,0,0,0,0,0,0,0,0,0,0,0,0.3505,0.3406,0.3533,0.3573,0.3579,0.37,0.3702,0.3705,0.3739,0.3737,0.3735,0.3733,0.3809,0.3814,0.3818,0.3889,0,0,0.3833,0.3836,0,0,0,0,0,0,0,0,0.3499,0.351,0.3566,0.3571,0.3577,0.3696,0.3685,0.3762,0.374,0.3679,0.3734,0.3732,0.3765,0.3774,0.3812,0.3892,0.3896,0.3834,0.3837,0.3839,0.384,0,0,0,0,0,0,0,0.3492,0.3504,0.36,0.3568,0.3575,0.3638,0.3649,0.3701,0.373,0.3684,0.3687,0.3705,0.3767,0.3807,0.3813,0.3897,0.3834,0.3838,0.3841,0.3843,0.4104,0.4108,0,0,0,0,0,0,0.3464,0.3496,0.3595,0.3605,0.3532,0.3641,0.3653,0.366,0.3732,0.3741,0.3706,0.3706,0.38,0.3808,0.3816,0.3961,0.3839,0.3844,0.3846,0.41,0.4105,0.4109,0,0,0,0,0,0,0.346,0.3471,0.3588,0.3555,0.3574,0.3644,0.3653,0.3665,0.3707,0.375,0.3757,0.3736,0.3798,0.3809,0.3883,0.3961,0.3846,0.385,0.4095,0.4101,0.4107,0.4212,0,0,0,0,0,0,0.3456,0.3468,0.3473,0.3552,0.3575,0.3676,0.3655,0.3669,0.3721,0.3722,0.3778,0.3783,0.3798,0.3876,0.3888,0.3966,0.3854,0.409,0.4098,0.4105,0.4204,0.4221,0.4236,0,0,0,0,0,0.345,0.3468,0.3472,0.3485,0.3575,0.3678,0.3697,0.3741,0.3724,0.3766,0.3799,0.3781,0.3932,0.3883,0.3896,0.3977,0.4087,0.4096,0.4104,0.4197,0.4218,0.4236,0,0,0,0,0,0,0.3423,0.3475,0.3481,0.3514,0.3594,0.3683,0.3724,0.375,0.3813,0.3807,0.3826,0.3837,0.3941,0.3944,0.3889,0.4077,0.401,0.4022,0.4076,0.4096,0.4111,0.4094,0.3858,0,0,0,0,0,0.3416,0.3436,0.3512,0.3543,0.3577,0.365,0.3696,0.3734,0.3797,0.3823,0.3861,0.3912,0.3994,0.4025,0.409,0.4181,0.4182,0.4246,0.4262,0.4276,0.4274,0.4359,0.4381,0.4138,0.4138,0.4138,0,0,0.3415,0.3447,0.3458,0.3539,0.3595,0.3686,0.3674,0.3756,0.3841,0.3821,0.3931,0.3972,0.4033,0.4149,0.4195,0.4154,0.4347,0.4287,0.4298,0.4289,0.437,0.4394,0.4414,0.4144,0.4143,0.4142,0,0,0.3442,0.3451,0.3487,0.3563,0.3655,0.3713,0.3737,0.3836,0.3885,0.4,0.4017,0.4093,0.4206,0.4268,0.4313,0.4455,0.4436,0.4486,0.4548,0.4631,0.4651,0.4668,0.4697,0.4716,0.4486,0.4486,0.4487,0,0.3441,0.3497,0.3523,0.3603,0.3671,0.3726,0.3816,0.3897,0.4011,0.4058,0.4046,0.4233,0.4271,0.4419,0.4472,0.4492,0.4513,0.4465,0.465,0.4667,0.4683,0.4708,0.4727,0.4492,0.4492,0.4491,0.4491,0,0.351,0.3574,0.3612,0.3718,0.3795,0.3887,0.3992,0.4072,0.4123,0.4196,0.4339,0.4403,0.4497,0.4548,0.4556,0.4705,0.4675,0.4664,0.459,0.4713,0.4732,0.4751,0.4501,0.4499,0.4497,0.4496,0,0,0.3468,0.3625,0.3641,0.3716,0.3865,0.3937,0.4076,0.4214,0.4296,0.4406,0.4521,0.4662,0.466,0.4711,0.4738,0.4812,0.4942,0.4786,0.4787,0.4795,0.5099,0.4935,0.4938,0.4968,0.4972,0.4975,0.5064,0,0.3523,0.3672,0.3738,0.39,0.3996,0.4091,0.4214,0.434,0.4438,0.4563,0.4646,0.4769,0.4738,0.4789,0.4861,0.4941,0.4997,0.4917,0.4994,0.4996,0.482,0.4957,0.4723,0.477,0.5081,0.5084,0.5087,0,0.3565,0.3673,0.3819,0.4,0.4043,0.4138,0.431,0.4436,0.4612,0.4686,0.4796,0.4859,0.4998,0.4948,0.5107,0.506,0.5079,0.5118,0.5122,0.4939,0.4866,0.4702,0.4791,0.4701,0.5114,0.5112,0.511,0,0.3518,0.3722,0.3828,0.39,0.411,0.4177,0.4286,0.4459,0.4571,0.476,0.4851,0.4994,0.5077,0.5162,0.5216,0.5185,0.537,0.5334,0.5195,0.5181,0.4978,0.4939,0.4967,0.543,0.543,0.543,0.5429,0,0.354,0.3633,0.3812,0.3881,0.4026,0.4161,0.4308,0.4435,0.4619,0.4744,0.4891,0.4998,0.5139,0.5248,0.5279,0.5288,0.5414,0.5223,0.5211,0.5006,0.4971,0.4875,0.4842,0.5433,0.5432,0.5432,0.5431,0,0.3465,0.3582,0.3731,0.394,0.4005,0.4103,0.4321,0.4421,0.4602,0.4772,0.4839,0.504,0.5156,0.5264,0.5399,0.534,0.5239,0.5351,0.5069,0.502,0.4744,0.4724,0.4561,0.4433,0.521,0.5207,0.5204,0,0.3434,0.3499,0.3734,0.3819,0.3908,0.4074,0.4177,0.4389,0.4491,0.4769,0.4831,0.5014,0.5081,0.5217,0.5176,0.5194,0.511,0.4972,0.4857,0.4711,0.4684,0.454,0.4436,0.4642,0.4635,0.4629,0.4624,0,0.3393,0.3462,0.3589,0.3756,0.3874,0.4014,0.4169,0.4252,0.4476,0.4591,0.4723,0.4809,0.4923,0.4821,0.4846,0.4833,0.4724,0.4845,0.4802,0.4325,0.4068,0.3942,0.458,0.4572,0.4577,0.4581,0.4584,0.4586,0.3341,0.341,0.3552,0.3697,0.3815,0.3894,0.3929,0.4067,0.4167,0.4257,0.4459,0.4457,0.4524,0.4497,0.4468,0.4279,0.4309,0.4147,0.4163,0.4054,0.383,0.4314,0.4219,0.4221,0.4224,0.4226,0.4229,0,0.3269,0.3349,0.3481,0.3619,0.3647,0.3757,0.3862,0.3825,0.3816,0.3931,0.3968,0.3959,0.3882,0.3936,0.3829,0.3662,0.3517,0.3581,0.3374,0.3328,0.3863,0.3738,0.3401,0.3401,0.3402,0.3402,0.3402,0.3402,0.3242,0.3305,0.3377,0.3403,0.3459,0.3405,0.3403,0.3359,0.3382,0.3288,0.3239,0.3319,0.3544,0.3576,0.3412,0.3313,0.3107,0.2898,0.2973,0.3411,0.3466,0.3519,0.3397,0.2994,0.2993,0.2272,0.2267,0.2263]},{"header":{"parameterUnit":"m.s-1","parameterCategory":2,"la1":30.2991,"la2":30.254,"lo1":-89.0895,"lo2":-89.0444,"dy":0.0017,"dx":0.0017,"nx":28,"ny":28,"refTime":"2025-05-17T03:00:00:Z","depth":"0","parameterNumber":3,"parameterNumberName":"V-component_of_CURRENTS"},"data":[0,0,0,0,0,0,0,0,0,0,0,0,0,0,0,0,0,0,0,0,0,0,0,0,0,0,0,0,0,0,0,0,0,0,0,0,0,0,0,0,0,0,0,0,0,0,0,0,0,0,0,0,0,0,0,0,0,0,0.0067,0.0067,0,0.0026,0.0025,0.0025,-0.001,-0.001,-0.0011,-0.0012,-0.0049,-0.005,-0.005,0,0,0,0,0,0,0,0,0,0,0,0,0,0.0127,0.0127,0.0067,0.0067,0.0066,0.0026,0.0025,0.0025,-0.001,-0.001,-0.0011,-0.0012,-0.0049,-0.005,-0.0051,0,0,0,0,0,0,0,0,0,0,0,0,0,0.0097,0.0126,0.0067,0.0042,0.0039,0.0026,0.0025,0.0025,-0.001,-0.001,-0.0011,-0.0012,-0.0049,-0.005,-0.0051,-0.0038,0,0,-0.0053,-0.0053,0,0,0,0,0,0,0,0,0.0099,0.0095,0.0047,0.0044,0.0041,0.0011,0.0033,0.0003,-0.0009,0.0011,-0.0012,-0.0012,-0.003,-0.0032,-0.0035,-0.004,-0.0042,-0.0053,-0.0053,-0.0054,-0.0054,0,0,0,0,0,0,0,0.0101,0.0097,0.0053,0.0046,0.0042,0.0037,0.0032,0.0027,-0.0003,0.0009,0.0006,-0.0001,-0.0031,-0.0035,-0.0037,-0.0042,-0.0053,-0.0054,-0.0054,-0.0054,-0.0018,-0.0017,0,0,0,0,0,0,0.0102,0.0099,0.0054,0.0051,0.0066,0.0036,0.0031,0.0023,-0.0003,-0.0008,-0.0001,-0.0003,-0.0033,-0.0036,-0.0038,0.0005,-0.0054,-0.0054,-0.0055,-0.002,-0.0018,-0.0016,0,0,0,0,0,0,0.0104,0.0099,0.0056,0.0073,0.0066,0.0036,0.0027,0.0022,0.0022,-0.0011,-0.0016,0.0004,-0.0034,-0.0037,-0.0036,0.0002,-0.0055,-0.0055,-0.0021,-0.0019,-0.0017,0.0072,0,0,0,0,0,0,0.0106,0.01,0.0102,0.0073,0.0065,0.0059,0.0028,0.0022,0.0017,0.0014,-0.0008,-0.0013,-0.0035,-0.0035,-0.0037,0.0,-0.0056,-0.0023,-0.002,-0.0018,0.0068,0.0077,0.0085,0,0,0,0,0,0.0108,0.0115,0.0103,0.0098,0.0067,0.006,0.0057,0.0033,0.0018,0.0028,0.0009,-0.0012,-0.0019,-0.0034,-0.0037,0.0001,-0.0024,-0.0021,-0.0018,0.0064,0.0075,0.0085,0,0,0,0,0,0,0.0146,0.0111,0.0097,0.0094,0.0082,0.0053,0.0056,0.0042,0.0035,0.0032,0.0001,-0.0004,0.0012,-0.0007,-0.0023,0.0019,-0.0022,-0.002,0.0041,0.0051,0.006,0.0087,-0.0057,0,0,0,0,0,0.0155,0.0151,0.012,0.0122,0.0114,0.0088,0.0083,0.0071,0.0055,0.0051,0.0034,0.0022,0.0024,0.0025,0.0017,0.004,0.002,0.0064,0.0073,0.0081,0.0101,0.0108,0.012,-0.0006,-0.0006,-0.0006,0,0,0.017,0.0152,0.015,0.013,0.0116,0.0129,0.0084,0.0084,0.0108,0.0049,0.0074,0.005,0.0035,0.0058,0.0065,0.0048,0.0101,0.0085,0.0091,0.0107,0.0113,0.0125,0.0136,-0.0004,-0.0004,-0.0005,0,0,0.0208,0.0182,0.0194,0.019,0.0175,0.0162,0.0166,0.0144,0.0145,0.016,0.0129,0.0131,0.0125,0.0129,0.0129,0.0185,0.0144,0.0179,0.0253,0.026,0.0271,0.028,0.025,0.0256,0.0189,0.0189,0.0189,0,0.0231,0.0241,0.0201,0.0218,0.0228,0.0183,0.0215,0.0213,0.02,0.0224,0.018,0.0198,0.0167,0.0223,0.0228,0.0209,0.0188,0.0213,0.0273,0.0282,0.029,0.0256,0.0262,0.0194,0.0193,0.0193,0.0192,0,0.028,0.0294,0.0302,0.0311,0.0317,0.0336,0.0324,0.0341,0.0329,0.0333,0.0372,0.0327,0.0343,0.033,0.0289,0.0344,0.03,0.0279,0.0247,0.0308,0.0268,0.0272,0.0201,0.0199,0.0198,0.0196,0,0,0.0326,0.0335,0.0342,0.0374,0.0371,0.039,0.0431,0.047,0.0528,0.05,0.0575,0.0543,0.0514,0.0511,0.0466,0.0461,0.0468,0.0392,0.039,0.0365,0.0457,0.0397,0.0394,0.0455,0.0457,0.0458,0.0399,0,0.0383,0.0439,0.0429,0.0505,0.0537,0.0528,0.0584,0.0617,0.0629,0.0687,0.0657,0.0698,0.0587,0.0599,0.0573,0.0508,0.0487,0.0485,0.0401,0.0398,0.034,0.0401,0.04,0.0347,0.0403,0.0403,0.0404,0,0.0443,0.0476,0.0546,0.0624,0.064,0.0681,0.0774,0.0823,0.0884,0.0898,0.0916,0.0884,0.0878,0.0773,0.0686,0.0687,0.0577,0.0508,0.0504,0.0426,0.0347,0.0299,0.0351,0.0189,0.0409,0.0409,0.0408,0,0.0506,0.0571,0.0634,0.0654,0.0721,0.0773,0.0825,0.0894,0.0979,0.1041,0.1104,0.1067,0.107,0.095,0.077,0.0736,0.0665,0.0605,0.0447,0.0439,0.0413,0.0401,0.0307,0.0548,0.0548,0.0548,0.0548,0,0.0576,0.0637,0.0671,0.0711,0.0836,0.0852,0.1,0.1047,0.1148,0.1283,0.1218,0.1298,0.1114,0.104,0.0851,0.0664,0.0723,0.0477,0.0437,0.044,0.0432,0.0267,0.0158,0.0546,0.0546,0.0547,0.0547,0,0.0638,0.0652,0.0745,0.0823,0.0866,0.096,0.1123,0.124,0.1304,0.1475,0.1508,0.1487,0.1385,0.1178,0.0986,0.0782,0.0498,0.0518,0.051,0.0471,0.0156,0.0052,-0.0109,-0.0176,0.0343,0.0341,0.034,0,0.0673,0.0716,0.0827,0.0914,0.0956,0.1098,0.122,0.1318,0.1449,0.1602,0.17,0.1649,0.1639,0.1316,0.096,0.0637,0.046,0.0406,0.0341,0.0157,0.0012,-0.0068,-0.0118,0.0327,0.0326,0.0325,0.0324,0,0.0754,0.0782,0.0863,0.1029,0.1159,0.1321,0.1489,0.1613,0.1752,0.1877,0.2012,0.2013,0.1702,0.1367,0.0902,0.0676,0.0284,0.0371,0.0208,0.0021,-0.0096,-0.0184,0.0314,0.0314,0.0315,0.0316,0.0317,0.0317,0.0824,0.0899,0.1006,0.1174,0.1328,0.1523,0.1679,0.1846,0.2051,0.2236,0.222,0.2231,0.1744,0.1111,0.0788,0.0195,0.0183,0.0005,-0.0101,-0.016,-0.0237,0.0218,0.0156,0.0156,0.0156,0.0157,0.0157,0,0.0912,0.1002,0.1158,0.1356,0.1536,0.1596,0.1853,0.2003,0.2233,0.235,0.2436,0.2186,0.1605,0.1029,0.0216,-0.0195,-0.032,-0.0408,-0.0503,-0.0526,-0.0088,-0.0098,-0.0249,-0.0249,-0.0249,-0.0248,-0.0248,-0.0248,0.0967,0.1117,0.1195,0.1495,0.1642,0.1883,0.2031,0.2225,0.2353,0.2472,0.2449,0.2408,0.1953,0.0526,-0.0378,-0.0571,-0.0833,-0.0938,-0.1048,-0.0744,-0.0712,-0.0682,-0.0715,-0.0992,-0.0993,-0.1413,-0.1417,-0.1421]}],[{"header":{"parameterUnit":"m.s-1","parameterCategory":2,"la1":30.2991,"la2":30.254,"lo1":-89.0895,"lo2":-89.0444,"dy":0.0017,"dx":0.0017,"nx":28,"ny":28,"refTime":"2025-05-17T03:00:00:Z","depth":"2","parameterNumber":2,"parameterNumberName":"U-component_of_CURRENTS"},"data":[0,0,0,0,0,0,0,0,0,0,0,0,0,0,0,0,0,0,0,0,0,0,0,0,0,0,0,0,0,0,0,0,0,0,0,0,0,0,0,0,0,0,0,0,0,0,0,0,0,0,0,0,0,0,0,0,0,0,0.3018,0.3019,0,0.3102,0.3103,0.3104,0.3125,0.3124,0.3124,0.3123,0.315,0.3151,0.3153,0,0,0,0,0,0,0,0,0,0,0,0,0,0.2955,0.2956,0.3018,0.3019,0.302,0.3102,0.3103,0.3105,0.3125,0.3124,0.3124,0.3123,0.315,0.3151,0.3153,0,0,0,0,0,0,0,0,0,0,0,0,0,0.3006,0.2956,0.3018,0.304,0.3042,0.3102,0.3103,0.3105,0.3125,0.3124,0.3123,0.3123,0.3149,0.3151,0.3153,0.3183,0,0,0.3159,0.316,0,0,0,0,0,0,0,0,0.3003,0.3008,0.3036,0.3038,0.3041,0.3102,0.3091,0.3128,0.3126,0.3095,0.3123,0.3122,0.3129,0.3132,0.3152,0.3185,0.3186,0.3159,0.316,0.3161,0.3162,0,0,0,0,0,0,0,0.2999,0.3005,0.3052,0.3037,0.304,0.3073,0.3078,0.3099,0.3115,0.3097,0.3099,0.3107,0.313,0.315,0.3153,0.3186,0.3159,0.3161,0.3162,0.3163,0.3377,0.3381,0,0,0,0,0,0,0.2984,0.3001,0.305,0.3055,0.3019,0.3074,0.308,0.3084,0.3116,0.3121,0.3108,0.3108,0.3147,0.315,0.3154,0.3266,0.3161,0.3163,0.3164,0.3373,0.3378,0.3383,0,0,0,0,0,0,0.2983,0.2988,0.3046,0.303,0.3039,0.3076,0.308,0.3086,0.312,0.3125,0.3128,0.3136,0.3147,0.3151,0.3186,0.3263,0.3164,0.3165,0.3367,0.3374,0.338,0.3441,0,0,0,0,0,0,0.298,0.2986,0.2995,0.3028,0.304,0.3098,0.3081,0.3088,0.3125,0.3126,0.315,0.3151,0.3146,0.3184,0.3188,0.3264,0.3167,0.3361,0.337,0.3378,0.3433,0.3449,0.3463,0,0,0,0,0,0.2978,0.2992,0.2994,0.3001,0.3046,0.31,0.311,0.3133,0.3127,0.3157,0.3166,0.3151,0.3243,0.3187,0.3192,0.327,0.3357,0.3368,0.3378,0.3427,0.3446,0.3462,0,0,0,0,0,0,0.2973,0.2996,0.3,0.3021,0.3064,0.3103,0.3128,0.3146,0.318,0.3176,0.3175,0.3179,0.3254,0.3258,0.3196,0.3368,0.3313,0.3324,0.3349,0.3367,0.3382,0.3382,0.3169,0,0,0,0,0,0.2974,0.2988,0.3024,0.3045,0.3061,0.3099,0.3125,0.3146,0.3175,0.319,0.3215,0.3253,0.3303,0.3323,0.3367,0.3432,0.3439,0.3503,0.3518,0.3529,0.3541,0.361,0.363,0.3416,0.3416,0.3416,0,0,0.2976,0.2993,0.3001,0.3045,0.3072,0.3119,0.3113,0.3161,0.322,0.3187,0.3271,0.3298,0.3334,0.3419,0.3456,0.3425,0.3598,0.3542,0.3551,0.3557,0.3622,0.3642,0.366,0.3423,0.3422,0.3421,0,0,0.2996,0.3004,0.3026,0.3068,0.3117,0.3144,0.3162,0.3222,0.3266,0.3335,0.3351,0.3411,0.3479,0.3531,0.356,0.3684,0.3674,0.3725,0.3791,0.3858,0.3874,0.3889,0.3921,0.3938,0.373,0.373,0.3731,0,0.3002,0.3033,0.3047,0.3092,0.3131,0.3157,0.321,0.3266,0.3341,0.3391,0.3371,0.3527,0.3537,0.3664,0.3706,0.3715,0.3739,0.3705,0.3871,0.3886,0.39,0.3929,0.3947,0.3735,0.3734,0.3734,0.3733,0,0.3041,0.3079,0.31,0.3156,0.3206,0.3255,0.3325,0.3394,0.3434,0.349,0.3626,0.3662,0.375,0.379,0.3769,0.3913,0.3893,0.3874,0.3808,0.3924,0.3949,0.3967,0.3741,0.3739,0.3738,0.3737,0,0,0.302,0.3108,0.3117,0.3163,0.3246,0.329,0.3395,0.3498,0.3575,0.3666,0.3786,0.3879,0.3904,0.3942,0.397,0.4027,0.4123,0.3992,0.3993,0.3992,0.4258,0.409,0.4092,0.413,0.4134,0.4137,0.4233,0,0.305,0.3132,0.3177,0.3273,0.3323,0.3394,0.3488,0.359,0.3672,0.3796,0.3885,0.3995,0.3967,0.4019,0.4077,0.412,0.4175,0.4098,0.4176,0.4178,0.3986,0.4108,0.38,0.3846,0.4249,0.4252,0.4254,0,0.3069,0.3129,0.3216,0.3338,0.3366,0.3432,0.3578,0.3677,0.3842,0.3914,0.4042,0.4101,0.4233,0.4179,0.4312,0.4266,0.427,0.4287,0.4291,0.4122,0.4041,0.3802,0.3862,0.4283,0.428,0.4278,0.4276,0,0.303,0.3156,0.3223,0.3265,0.3402,0.3471,0.3558,0.371,0.3815,0.4007,0.4083,0.424,0.4327,0.4386,0.4399,0.4371,0.4517,0.4477,0.4339,0.4326,0.4072,0.4029,0.457,0.457,0.4569,0.4569,0.4569,0,0.303,0.3088,0.3213,0.3248,0.3361,0.3466,0.3599,0.3714,0.389,0.4001,0.4143,0.4244,0.4381,0.4464,0.4463,0.4448,0.4568,0.4373,0.4353,0.4084,0.4044,0.4425,0.4407,0.4573,0.4572,0.4571,0.4571,0,0.2969,0.3043,0.3132,0.328,0.3338,0.3422,0.3616,0.3702,0.3876,0.4033,0.4099,0.4289,0.4371,0.4466,0.4563,0.4506,0.4521,0.448,0.4137,0.4073,0.4271,0.4256,0.4352,0.4347,0.4343,0.434,0.4337,0,0.2941,0.2976,0.313,0.3194,0.3263,0.3407,0.3491,0.3682,0.3776,0.4022,0.4079,0.4239,0.4274,0.4368,0.4336,0.4328,0.443,0.4019,0.3897,0.4285,0.4256,0.4248,0.4238,0.3598,0.3589,0.3582,0.3576,0,0.2893,0.2939,0.3016,0.3136,0.3229,0.3339,0.3479,0.3536,0.3738,0.383,0.3931,0.3984,0.409,0.3937,0.3953,0.3905,0.3993,0.3868,0.4407,0.3679,0.3575,0.3546,0.3562,0.3513,0.3519,0.3524,0.3527,0.353,0.2855,0.2886,0.297,0.3086,0.3174,0.3221,0.3232,0.3341,0.3408,0.3479,0.3655,0.3612,0.3683,0.3514,0.341,0.3352,0.3612,0.346,0.3483,0.3513,0.3387,0.3279,0.3137,0.3141,0.3144,0.3148,0.315,0,0.2781,0.2828,0.292,0.3012,0.3014,0.3113,0.3172,0.3107,0.305,0.3173,0.3196,0.2952,0.2857,0.2926,0.2735,0.2726,0.2716,0.2615,0.2585,0.2651,0.2709,0.2541,0.2068,0.2064,0.2061,0.2057,0,0,0.2745,0.276,0.2802,0.2803,0.2855,0.2765,0.2727,0.2653,0.2668,0.2565,0.2534,0.2742,0.2847,0.2424,0.2375,0.2183,0.24,0.2102,0.2979,0.3012,0.3065,0.3214,0.3031,0,0,0,0,0]},{"header":{"parameterUnit":"m.s-1","parameterCategory":2,"la1":30.2991,"la2":30.254,"lo1":-89.0895,"lo2":-89.0444,"dy":0.0017,"dx":0.0017,"nx":28,"ny":28,"refTime":"2025-05-17T03:00:00:Z","depth":"2","parameterNumber":3,"parameterNumberName":"V-component_of_CURRENTS"},"data":[0,0,0,0,0,0,0,0,0,0,0,0,0,0,0,0,0,0,0,0,0,0,0,0,0,0,0,0,0,0,0,0,0,0,0,0,0,0,0,0,0,0,0,0,0,0,0,0,0,0,0,0,0,0,0,0,0,0,-0.0007,-0.0008,0,-0.0042,-0.0043,-0.0043,-0.0074,-0.0074,-0.0075,-0.0075,-0.0112,-0.0113,-0.0113,0,0,0,0,0,0,0,0,0,0,0,0,0,0.0047,0.0046,-0.0007,-0.0008,-0.0008,-0.0042,-0.0043,-0.0043,-0.0073,-0.0074,-0.0075,-0.0075,-0.0112,-0.0112,-0.0113,0,0,0,0,0,0,0,0,0,0,0,0,0,0.0021,0.0046,-0.0007,-0.0029,-0.0032,-0.0042,-0.0043,-0.0043,-0.0073,-0.0074,-0.0075,-0.0076,-0.0112,-0.0112,-0.0113,-0.0101,0,0,-0.0115,-0.0116,0,0,0,0,0,0,0,0,0.0023,0.0019,-0.0026,-0.0028,-0.0031,-0.0056,-0.0037,-0.0063,-0.0073,-0.0055,-0.0075,-0.0076,-0.0094,-0.0097,-0.0098,-0.0102,-0.0104,-0.0115,-0.0116,-0.0116,-0.0116,0,0,0,0,0,0,0,0.0024,0.0021,-0.0019,-0.0026,-0.0029,-0.0033,-0.0038,-0.0042,-0.0068,-0.0057,-0.006,-0.0067,-0.0096,-0.0097,-0.0099,-0.0105,-0.0115,-0.0116,-0.0116,-0.0117,-0.0098,-0.0097,0,0,0,0,0,0,0.0024,0.0022,-0.0018,-0.002,-0.0008,-0.0034,-0.0039,-0.0045,-0.0068,-0.0073,-0.0066,-0.0068,-0.0096,-0.0098,-0.0101,-0.0069,-0.0116,-0.0117,-0.0117,-0.0099,-0.0098,-0.0097,0,0,0,0,0,0,0.0026,0.0021,-0.0016,-0.0001,-0.0007,-0.0034,-0.0041,-0.0046,-0.0046,-0.0076,-0.008,-0.0062,-0.0097,-0.01,-0.0099,-0.0072,-0.0117,-0.0118,-0.01,-0.0098,-0.0097,-0.0017,0,0,0,0,0,0,0.0027,0.0022,0.0025,-0.0001,-0.0008,-0.0012,-0.0041,-0.0046,-0.005,-0.0053,-0.0073,-0.0078,-0.0097,-0.0098,-0.01,-0.0073,-0.0118,-0.0101,-0.0099,-0.0098,-0.0021,-0.0013,-0.0007,0,0,0,0,0,0.003,0.0036,0.0025,0.002,-0.0006,-0.0012,-0.0014,-0.0035,-0.0049,-0.004,-0.0057,-0.0077,-0.0089,-0.0098,-0.01,-0.0073,-0.0102,-0.01,-0.0098,-0.0024,-0.0015,-0.0007,0,0,0,0,0,0,0.0064,0.0032,0.002,0.0017,0.0008,-0.0018,-0.0015,-0.0027,-0.0033,-0.0036,-0.0065,-0.007,-0.006,-0.0078,-0.0088,-0.0064,-0.0098,-0.0096,-0.0041,-0.0033,-0.0026,-0.0001,-0.0119,0,0,0,0,0,0.0072,0.0069,0.0041,0.0043,0.0036,0.0014,0.001,-0.0001,-0.0015,-0.0019,-0.0035,-0.0049,-0.0052,-0.0053,-0.0062,-0.0046,-0.0072,-0.0031,-0.0024,-0.0018,-0.0,-0.0018,-0.0011,-0.009,-0.009,-0.009,0,0,0.0086,0.0069,0.0067,0.0051,0.0038,0.005,0.001,0.0011,0.0031,-0.0021,-0.0001,-0.0025,-0.0044,-0.0028,-0.0025,-0.004,-0.0011,-0.0015,-0.0009,0.0005,-0.0015,-0.0007,-0.0,-0.0089,-0.0089,-0.0089,0,0,0.0119,0.0097,0.0107,0.0105,0.0091,0.0081,0.0084,0.0065,0.0064,0.0075,0.0046,0.004,0.0031,0.0027,0.0024,0.0066,0.0025,0.006,0.0122,0.0105,0.0111,0.0117,0.0084,0.0086,0.0067,0.0067,0.0068,0,0.014,0.0149,0.0113,0.0129,0.014,0.01,0.0131,0.0126,0.0114,0.0131,0.0092,0.0093,0.0063,0.0099,0.0104,0.0085,0.006,0.0092,0.0115,0.012,0.0124,0.0089,0.009,0.0072,0.0071,0.0071,0.007,0,0.0182,0.0195,0.0203,0.0211,0.0221,0.0239,0.0227,0.0238,0.0225,0.0224,0.0245,0.0199,0.0201,0.0187,0.0155,0.0183,0.0149,0.0123,0.0095,0.0137,0.0097,0.0097,0.0077,0.0076,0.0075,0.0074,0,0,0.0223,0.0231,0.0238,0.0269,0.027,0.0291,0.0321,0.0352,0.0396,0.0362,0.0413,0.0378,0.0345,0.0338,0.0294,0.0273,0.026,0.0213,0.021,0.0185,0.0211,0.0159,0.0153,0.0236,0.0236,0.0237,0.0167,0,0.0274,0.0323,0.0318,0.0392,0.0421,0.0414,0.0457,0.0482,0.0485,0.0521,0.0476,0.05,0.0406,0.041,0.037,0.0296,0.0265,0.0281,0.017,0.0167,0.012,0.0153,0.0177,0.0115,0.0166,0.0166,0.0166,0,0.0327,0.0356,0.0422,0.0497,0.0513,0.0554,0.0632,0.0671,0.0701,0.0704,0.0701,0.0659,0.0629,0.0538,0.0424,0.0437,0.0332,0.026,0.0255,0.0184,0.0116,0.0083,0.0112,0.0165,0.0165,0.0165,0.0165,0,0.0383,0.0445,0.0505,0.0525,0.0586,0.0635,0.0684,0.0732,0.0801,0.0828,0.0866,0.0807,0.0792,0.0658,0.0477,0.0457,0.0343,0.0296,0.0153,0.0146,0.0135,0.0127,0.0221,0.0221,0.0221,0.0221,0.0222,0,0.0445,0.0504,0.0538,0.0575,0.0692,0.0709,0.0841,0.0875,0.0947,0.1051,0.0967,0.1009,0.0821,0.0722,0.0537,0.0342,0.0382,0.0175,0.0134,0.0161,0.0156,0.0176,0.0172,0.0219,0.0219,0.022,0.022,0,0.05,0.0513,0.0601,0.0675,0.0719,0.0806,0.096,0.1055,0.1092,0.1218,0.1235,0.1175,0.1038,0.0827,0.0617,0.0436,0.0249,0.0167,0.02,0.0164,0.0046,0.0047,0.0011,0.0009,0.0007,0.0005,0.0004,0,0.0532,0.0571,0.0677,0.0761,0.0804,0.0938,0.1047,0.113,0.124,0.1322,0.1392,0.1296,0.1233,0.089,0.0579,0.0265,0.0226,0.0075,0.0037,0.0066,0.0029,0.0033,0.0036,0.0046,0.0045,0.0045,0.0044,0,0.0605,0.0629,0.0705,0.0862,0.0988,0.1139,0.1293,0.1395,0.1498,0.1564,0.1622,0.1569,0.1256,0.0937,0.0511,0.03,0.0124,0.0049,0.0094,0.0092,0.0092,0.0058,0.0061,0.0038,0.0039,0.0039,0.0039,0.004,0.067,0.0735,0.0833,0.0997,0.1142,0.1316,0.1449,0.1579,0.1724,0.1822,0.1777,0.1687,0.1347,0.0789,0.0426,0.006,0.008,-0.006,-0.0054,-0.0049,-0.0036,-0.0039,-0.0116,-0.0117,-0.0117,-0.0117,-0.0117,0,0.0748,0.0829,0.0976,0.1163,0.1325,0.1385,0.1603,0.1699,0.1837,0.1904,0.1912,0.157,0.1208,0.0817,0.027,-0.0064,-0.0071,-0.0172,-0.0107,-0.0098,-0.0091,-0.0078,-0.0172,-0.0173,-0.0174,-0.0175,0,0,0.0796,0.0929,0.1001,0.1279,0.1418,0.1613,0.1727,0.1832,0.1907,0.1933,0.1886,0.1795,0.132,0.091,0.046,0.0143,0.0102,0.0082,0.0162,0.0302,0.0313,0.0009,0.0042,0,0,0,0,0]}],[{"header":{"parameterUnit":"m.s-1","parameterCategory":2,"la1":30.2991,"la2":30.254,"lo1":-89.0895,"lo2":-89.0444,"dy":0.0017,"dx":0.0017,"nx":28,"ny":28,"refTime":"2025-05-17T03:00:00:Z","depth":"4","parameterNumber":2,"parameterNumberName":"U-component_of_CURRENTS"},"data":[0,0,0,0,0,0,0,0,0,0,0,0,0,0,0,0,0,0,0,0,0,0,0,0,0,0,0,0,0,0,0,0,0,0,0,0,0,0,0,0,0,0,0,0,0,0,0,0,0,0,0,0,0,0,0,0,0,0,0.1921,0.192,0,0.1866,0.1865,0.1865,0.1878,0.1879,0.1881,0.1882,0.1926,0.1926,0.1926,0,0,0,0,0,0,0,0,0,0,0,0,0,0.1919,0.1919,0.1921,0.192,0.192,0.1866,0.1865,0.1864,0.1878,0.188,0.1881,0.1882,0.1926,0.1926,0.1926,0,0,0,0,0,0,0,0,0,0,0,0,0,0.1897,0.192,0.1921,0.1921,0.192,0.1866,0.1865,0.1864,0.1878,0.188,0.1881,0.1883,0.1926,0.1926,0.1926,0.1893,0,0,0.1927,0.1927,0,0,0,0,0,0,0,0,0.1898,0.1897,0.1921,0.1921,0.192,0.1881,0.1881,0.1879,0.1877,0.1893,0.1882,0.1884,0.192,0.192,0.1904,0.1895,0.1897,0.1927,0.1927,0.1927,0.1927,0,0,0,0,0,0,0,0.19,0.1899,0.1898,0.1921,0.192,0.1882,0.1882,0.1879,0.1899,0.1892,0.1893,0.1887,0.192,0.1903,0.1905,0.1898,0.1927,0.1927,0.1927,0.1927,0.1976,0.1977,0,0,0,0,0,0,0.1913,0.1901,0.19,0.1897,0.1914,0.1882,0.1881,0.1891,0.1897,0.1898,0.1886,0.1888,0.1902,0.1905,0.1907,0.2003,0.1927,0.1927,0.1927,0.1975,0.1977,0.1978,0,0,0,0,0,0,0.1913,0.1914,0.1902,0.1897,0.1893,0.1881,0.1891,0.1889,0.1907,0.1891,0.1895,0.191,0.1904,0.1907,0.1947,0.2,0.1927,0.1928,0.1974,0.1976,0.1977,0.2109,0,0,0,0,0,0,0.1914,0.1915,0.1942,0.1899,0.1894,0.1891,0.189,0.1887,0.1899,0.1903,0.1912,0.1916,0.1905,0.1947,0.1947,0.1999,0.1928,0.1972,0.1975,0.1977,0.2103,0.2115,0.2125,0,0,0,0,0,0.1914,0.1935,0.1944,0.1944,0.1927,0.1891,0.1886,0.1881,0.19,0.1904,0.1929,0.1918,0.1961,0.1948,0.1948,0.2001,0.1971,0.1974,0.1976,0.2098,0.2112,0.2125,0,0,0,0,0,0,0.1942,0.1937,0.1946,0.1965,0.1943,0.1895,0.1908,0.1899,0.1916,0.1945,0.1934,0.1938,0.2,0.1969,0.1955,0.2018,0.1963,0.1966,0.2055,0.2069,0.208,0.2081,0.1928,0,0,0,0,0,0.1962,0.1987,0.1958,0.1977,0.1976,0.195,0.1944,0.1938,0.1937,0.1947,0.1948,0.1965,0.2,0.2012,0.2024,0.2049,0.2045,0.208,0.2091,0.2101,0.21,0.2156,0.2173,0.1987,0.1987,0.1987,0,0,0.1977,0.198,0.1994,0.1986,0.1979,0.1962,0.1953,0.1956,0.1959,0.195,0.198,0.2012,0.2018,0.2065,0.2086,0.2052,0.2152,0.2104,0.2113,0.2106,0.2161,0.2179,0.2196,0.1988,0.1988,0.1988,0,0,0.1991,0.2028,0.2042,0.2025,0.202,0.2002,0.2012,0.1985,0.2006,0.2034,0.2047,0.2097,0.2122,0.2133,0.2148,0.2214,0.2219,0.2235,0.2287,0.2343,0.236,0.2374,0.2401,0.2416,0.2229,0.223,0.223,0,0.2013,0.2019,0.2035,0.2027,0.2019,0.2025,0.2014,0.2026,0.2016,0.205,0.2066,0.2146,0.215,0.2217,0.2254,0.2242,0.2278,0.2245,0.2362,0.2375,0.2388,0.2411,0.2427,0.2236,0.2236,0.2235,0.2234,0,0.2009,0.202,0.2027,0.2028,0.2025,0.2021,0.2029,0.2062,0.2106,0.2114,0.2213,0.2236,0.2284,0.2303,0.2311,0.2405,0.2405,0.2385,0.2336,0.2416,0.2434,0.2448,0.2246,0.2243,0.2241,0.224,0,0,0.2023,0.2026,0.2029,0.2024,0.2027,0.2016,0.2069,0.21,0.2165,0.2203,0.2284,0.2352,0.2394,0.241,0.2432,0.2478,0.2602,0.2489,0.2489,0.253,0.2742,0.2571,0.2569,0.2639,0.2642,0.2644,0.2723,0,0.201,0.199,0.2007,0.1996,0.1976,0.2024,0.2071,0.2119,0.2194,0.2279,0.2348,0.2437,0.2427,0.25,0.2547,0.2599,0.2646,0.2582,0.2645,0.2645,0.2497,0.2581,0.2654,0.2733,0.2736,0.2739,0.274,0,0.1986,0.1968,0.1955,0.198,0.199,0.2014,0.2117,0.2162,0.2295,0.2374,0.2478,0.2537,0.263,0.2619,0.2727,0.2709,0.2741,0.2761,0.2764,0.2563,0.25,0.2632,0.2765,0.2763,0.2761,0.276,0.2758,0,0.1947,0.1939,0.1933,0.1927,0.1959,0.2022,0.2083,0.2204,0.2281,0.2455,0.2543,0.265,0.2743,0.2797,0.2836,0.2823,0.2947,0.2913,0.2775,0.2763,0.2836,0.2819,0.2991,0.299,0.299,0.299,0.299,0,0.1901,0.1899,0.1926,0.1916,0.1955,0.2012,0.2126,0.2219,0.2379,0.247,0.26,0.2686,0.2811,0.2883,0.2891,0.287,0.2986,0.2795,0.2779,0.2887,0.2876,0.2846,0.2829,0.2993,0.2992,0.2992,0.2991,0,0.1849,0.1867,0.1842,0.1891,0.1933,0.1965,0.2136,0.2213,0.2389,0.2522,0.2589,0.2763,0.2863,0.2926,0.3024,0.2926,0.2922,0.2885,0.2999,0.2986,0.2687,0.2676,0.2734,0.2729,0.2725,0.2721,0.2718,0,0.1814,0.18,0.182,0.1824,0.186,0.1947,0.2024,0.2204,0.2281,0.2529,0.2564,0.2751,0.2838,0.2822,0.2909,0.2904,0.2869,0.2836,0.2752,0.2687,0.2666,0.2661,0.2655,0.2711,0.271,0.2709,0.2707,0,0.1733,0.1758,0.1727,0.1739,0.1792,0.184,0.1965,0.2015,0.2221,0.2401,0.2496,0.2561,0.2673,0.2726,0.2756,0.2738,0.2834,0.2789,0.2797,0.2718,0.2659,0.2641,0.2641,0.2692,0.2694,0.2696,0.2697,0,0.1675,0.1628,0.1618,0.1604,0.1669,0.1698,0.1784,0.1879,0.1984,0.2254,0.2285,0.2474,0.2655,0.2642,0.2655,0.2641,0.2595,0.2483,0.2506,0.2524,0.2416,0.2309,0.2231,0,0,0,0,0,0.1601,0.1541,0.1509,0.1465,0.1528,0.158,0.172,0.1812,0.2022,0.2031,0.2157,0.2247,0.2323,0.2417,0.236,0.2546,0.2588,0.2464,0.2466,0.2607,0.2625,0.2515,0,0,0,0,0,0,0.1543,0.1514,0.1445,0.1358,0.1343,0.1403,0.1488,0.1624,0.1642,0.1874,0.1928,0.2102,0.2205,0.2338,0.2318,0.2343,0.2292,0.2586,0.258,0.2597,0.2613,0.2627,0.2521,0,0,0,0,0]},{"header":{"parameterUnit":"m.s-1","parameterCategory":2,"la1":30.2991,"la2":30.254,"lo1":-89.0895,"lo2":-89.0444,"dy":0.0017,"dx":0.0017,"nx":28,"ny":28,"refTime":"2025-05-17T03:00:00:Z","depth":"4","parameterNumber":3,"parameterNumberName":"V-component_of_CURRENTS"},"data":[0,0,0,0,0,0,0,0,0,0,0,0,0,0,0,0,0,0,0,0,0,0,0,0,0,0,0,0,0,0,0,0,0,0,0,0,0,0,0,0,0,0,0,0,0,0,0,0,0,0,0,0,0,0,0,0,0,0,0.0019,0.0018,0,0.0017,0.0018,0.0018,0.0006,0.0005,0.0005,0.0004,-0.0016,-0.0016,-0.0016,0,0,0,0,0,0,0,0,0,0,0,0,0,0.0042,0.0042,0.0019,0.0018,0.0018,0.0017,0.0018,0.0018,0.0006,0.0005,0.0005,0.0004,-0.0016,-0.0016,-0.0016,0,0,0,0,0,0,0,0,0,0,0,0,0,0.0037,0.0042,0.0019,0.0011,0.001,0.0017,0.0018,0.0018,0.0006,0.0005,0.0005,0.0004,-0.0016,-0.0016,-0.0016,-0.0003,0,0,-0.0017,-0.0017,0,0,0,0,0,0,0,0,0.0038,0.0037,0.0012,0.0011,0.001,0.0009,0.0018,0.0009,0.0006,0.001,0.0004,0.0004,-0.001,-0.0011,-0.0006,-0.0004,-0.0005,-0.0017,-0.0017,-0.0017,-0.0017,0,0,0,0,0,0,0,0.0038,0.0037,0.002,0.0012,0.0011,0.0018,0.0016,0.0017,0.0005,0.0009,0.0008,0.0005,-0.001,-0.0006,-0.0007,-0.0005,-0.0017,-0.0017,-0.0017,-0.0017,0.0003,0.0003,0,0,0,0,0,0,0.0033,0.0037,0.002,0.002,0.002,0.0018,0.0016,0.0012,0.0005,0.0003,0.0006,0.0004,-0.0005,-0.0007,-0.0008,0.0017,-0.0017,-0.0017,-0.0017,0.0002,0.0003,0.0004,0,0,0,0,0,0,0.0034,0.0032,0.002,0.0027,0.0026,0.0018,0.0013,0.0012,0.0019,0.0002,0.0,0.0013,-0.0006,-0.0007,-0.0002,0.0015,-0.0017,-0.0017,0.0001,0.0002,0.0003,0.0059,0,0,0,0,0,0,0.0034,0.0032,0.0034,0.0027,0.0025,0.0032,0.0014,0.0013,0.0017,0.0016,0.0008,0.0005,-0.0007,-0.0001,-0.0002,0.0014,-0.0017,0.0001,0.0002,0.0003,0.0057,0.0062,0.0067,0,0,0,0,0,0.0035,0.004,0.0034,0.0033,0.0026,0.0032,0.0033,0.0026,0.0018,0.0029,0.0021,0.0006,0.0005,-0.0,-0.0001,0.0015,0.0,0.0002,0.0003,0.0054,0.0061,0.0066,0,0,0,0,0,0,0.0055,0.0039,0.0032,0.0033,0.0035,0.0029,0.0036,0.0032,0.0036,0.0035,0.0018,0.0015,0.0022,0.0013,0.0007,0.0023,-0.0001,0.0,0.0038,0.0044,0.0049,0.0054,-0.0017,0,0,0,0,0,0.006,0.0059,0.0048,0.0052,0.0051,0.0046,0.0049,0.0047,0.0044,0.0046,0.0039,0.0032,0.0028,0.0032,0.0023,0.0041,0.0007,0.0049,0.0054,0.0058,0.0061,0.0018,0.0019,0.0008,0.0008,0.0008,0,0,0.0069,0.0061,0.0061,0.0057,0.0055,0.0074,0.0047,0.0055,0.0077,0.0043,0.0068,0.0047,0.0034,0.0047,0.005,0.0043,0.0044,0.006,0.0064,0.0064,0.0019,0.002,0.0021,0.0009,0.0009,0.0009,0,0,0.0093,0.008,0.0089,0.0095,0.0094,0.0097,0.0101,0.01,0.0102,0.0122,0.0097,0.0083,0.0094,0.0079,0.0074,0.0103,0.0065,0.0106,0.0145,0.0103,0.0103,0.0103,0.0064,0.006,0.0117,0.0117,0.0117,0,0.0108,0.0118,0.0096,0.0113,0.0129,0.0111,0.0142,0.0144,0.0149,0.0152,0.0138,0.0124,0.0106,0.0111,0.0121,0.0113,0.0086,0.0125,0.0109,0.0108,0.0107,0.0066,0.0061,0.012,0.0119,0.0119,0.0119,0,0.0141,0.0157,0.0164,0.0182,0.0198,0.0219,0.0221,0.0231,0.0229,0.0226,0.0222,0.0189,0.0179,0.0171,0.016,0.015,0.0133,0.0113,0.0094,0.0111,0.0068,0.0061,0.0124,0.0123,0.0122,0.0121,0,0,0.0164,0.0184,0.0191,0.0221,0.0239,0.0261,0.0287,0.0307,0.0326,0.0307,0.032,0.0294,0.0259,0.0251,0.022,0.0187,0.0152,0.0159,0.0155,0.012,0.0065,0.006,0.0052,0.0134,0.0133,0.0132,0.0038,0,0.0204,0.025,0.0254,0.0325,0.0353,0.0355,0.0386,0.0399,0.0396,0.0399,0.0344,0.0344,0.0296,0.0292,0.0248,0.0175,0.0138,0.018,0.0053,0.0049,0.0043,0.0045,0.013,0.0033,0.0031,0.003,0.0029,0,0.0243,0.0272,0.0333,0.0398,0.0412,0.0456,0.0502,0.053,0.0515,0.0507,0.0475,0.043,0.0378,0.0334,0.0208,0.024,0.0161,0.0097,0.0091,0.0063,0.0033,0.001,0.0017,0.0018,0.0019,0.0019,0.002,0,0.0275,0.0339,0.0393,0.0414,0.0472,0.051,0.055,0.0561,0.0594,0.0575,0.058,0.0498,0.0468,0.035,0.0213,0.0214,0.0066,0.0046,-0.0036,-0.0038,-0.0031,-0.003,-0.0045,-0.0044,-0.0044,-0.0044,-0.0044,0,0.0318,0.0371,0.0416,0.0451,0.054,0.0561,0.0647,0.0661,0.068,0.0716,0.0641,0.0633,0.0473,0.0367,0.0231,0.0077,0.0074,-0.0032,-0.0062,-0.0005,0.0,-0.0036,-0.0034,-0.0047,-0.0047,-0.0046,-0.0045,0,0.0347,0.037,0.0445,0.0517,0.0557,0.0622,0.0734,0.078,0.0786,0.0825,0.0823,0.0737,0.0602,0.0427,0.0233,0.0116,-0.0042,-0.0096,-0.002,-0.0044,-0.0123,-0.0117,-0.0196,-0.0197,-0.0197,-0.0198,-0.0199,0,0.0365,0.0398,0.0497,0.056,0.0606,0.0709,0.078,0.0833,0.088,0.0885,0.0898,0.0793,0.0709,0.0435,0.0243,-0.0021,-0.0057,-0.0146,-0.0139,-0.0117,-0.0139,-0.0131,-0.0124,-0.02,-0.02,-0.02,-0.02,0,0.0405,0.0431,0.0489,0.0607,0.0705,0.0811,0.0913,0.0956,0.0998,0.1004,0.0964,0.0822,0.0672,0.0449,0.0246,0.0055,-0.0095,-0.0155,-0.0154,-0.0148,-0.0123,-0.0142,-0.0134,-0.0203,-0.0203,-0.0202,-0.0202,0,0.0437,0.0478,0.055,0.0659,0.0776,0.0874,0.0934,0.0992,0.1039,0.1035,0.1019,0.0853,0.0761,0.0488,0.0295,0.011,0.0062,-0.0008,-0.0016,-0.0016,0.006,0.012,0.009,0,0,0,0,0,0.0466,0.0513,0.0607,0.072,0.0827,0.0895,0.1002,0.1041,0.1079,0.1063,0.1045,0.0903,0.0633,0.0518,0.0335,0.0265,0.0017,0.004,-0.0071,-0.0218,-0.0215,-0.0158,0,0,0,0,0,0,0.0488,0.0567,0.0601,0.074,0.0823,0.0944,0.101,0.1038,0.1031,0.1039,0.0906,0.0844,0.0588,0.0739,0.0327,0.0271,0.0171,-0.008,-0.0085,-0.022,-0.0217,-0.0215,-0.0154,0,0,0,0,0]}]]